Find Starlink 32682

NORAD ID: 62196 Int'l Des: 2024-229 Owner: SPXS Country: US Constellation: starlink operational
LEOCIRCULAR

現在のビュー

3D地球を読み込み中...

About Starlink 32682

Starlink 32682 (NORAD 62196) is a starlink constellation satellite (v2 mini) launched Dec 4, 2024 by SPXS of US. It operates in LEO, CIRCULAR orbit with a mass of 730.00 kg.

Starlink 32682について

説明を読み込み中...

次回通過

Passes for default location (London). Set your location on the main map for personalized predictions.

高度履歴

Loading altitude history...

軌道要素

1 62196U 24229E 26166.96089479 .00024178 00000-0 88481-3 0 9990
2 62196 43.0075 43.0638 0003703 288.9510 71.0940 15.27593235 85966
Epoch: Jun 15, 2026 • Age: 9 hours

現在のステータス

高度 492.5 km
速度 7.62 km/s
衛星直下点 -40.02°S, 49.8°W
打ち上げ日 Dec 4, 2024
運用期間 1.5 years
タイプ internet

技術仕様

分類 Payload
質量 730.00 kg
乾燥質量 700.00 kg
総質量 730.00 kg
長さ 0.30 m
直径 4.10 m
スパン 29.00 m
形状 Box + pan
製造者 SPXS
バスタイプ Starlink V2M
フェーズステータス In Orbit
所有者/国 SPXS/US

Most Searched